Location: Azat
(46.0765°N, 1.7600°E)
Time: 21:29:46
(UTC+00:00)

Cosmos 1833 Rocket - Pass Details

Date: 09 April 2020
Orbit: 834 x 838 km, 71.0° (Epoch: 24 May)

Event Time Altitude Azimuth Distance (km) Brightness Sun altitude
Exits shadow 22:20:45 50° 293° (WNW) 1,066 3.4 -32.0°
Maximum altitude 22:20:59 50° 302° (WNW) 1,062 3.4 -32.0°
Drops below altitude 10° 22:26:28 10° 18° (NNE) 2,460 5.6 -32.5°
Sets 22:29:00 0° 24° (NNE) 3,398 6.4 -32.6°
